Preview of NWS' New Version of Forecast
This preview is not operational and should not be used for support decisions.

Regional Weather Roundup (RWR)

Issued by Gray - Portland, ME (GYX)

                            
507 
ASUS41 KGYX 261310
RWRGYX
WEATHER ROUNDUP FOR MAINE AND NEW HAMPSHIRE
NATIONAL WEATHER SERVICE GRAY ME
900 AM EDT TUE MAR 26 2019

MEZ002-005-006-010-012-015-018-020-021-024-026-027-029-261400-
MAINE
  
CITY           SKY/WX    TMP DP  RH WIND       PRES   REMARKS
PORTLAND       FAIR      32   8  36 N10       30.25R                  
SANFORD        FAIR      32  11  41 N8        30.24R                  
BAR HARBOR     FAIR      28   7  41 N9G16     30.21R                  
WISCASSET      FAIR      31   7  36 VRB7      30.25R                  
ROCKLAND       FAIR      30   8  39 VRB6      30.23R                  
FRYEBURG       FAIR      26   4  38 NE5       30.23R                  
LEWISTONAUBURN FAIR      27   8  44 NW14      30.24R WCI  16          
AUGUSTA        FAIR      27   6  41 NW10      30.23R WCI  17          
WATERVILLE     FAIR      25   7  46 N8        30.20R                  
BANGOR         FAIR      26   4  38 NW13      30.23R WCI  15          
GREENVILLE       N/A     15   0  51 NW16G24   30.10R WCI  -1          
MILLINOCKET    FAIR      20   3  48 NW13G21   30.20R WCI   7          
HOULTON        FAIR      17   5  59 N7        30.16R                  
PRESQUE ISLE   FAIR      14  -1  51 NW13      30.17R WCI   0          
FRENCHVILLE    FAIR      10  -6  48 NW13G23   30.10R WCI  -5          
CARIBOU        FAIR      12  -4  48 NW12      30.14R WCI  -2          
$$

NHZ002-005-008-009-011-012-014-261400-
NEW HAMPSHIRE
  
CITY           SKY/WX    TMP DP  RH WIND       PRES   REMARKS
PORTSMOUTH     MOSUNNY   33   7  34 NW12      30.23R                  
ROCHESTER      FAIR      31  11  43 NW7       30.23R                  
NASHUA         FAIR      32   6  33 N10G18    30.26R                  
MANCHESTER     FAIR      33   5  30 N12       30.24R                  
CONCORD        FAIR      29  10  45 NW9       30.26R                  
PLYMOUTH       FAIR      27   4  37 CALM      30.24S                  
BERLIN         FAIR      20   4  50 N9        30.20R                  
WHITEFIELD     FAIR      23   6  48 NE6       30.23R                  
JAFFREY        FAIR      29   3  33 NW7       30.21R                  
KEENE          FAIR      31  17  56 N7        30.26R                  
LEBANON        FAIR      28   7  41 N3        30.26R                  
MT WASHINGTON  MOSUNNY   -4  -8  84 NW61        N/A  WCI -39          
$$

VTZ005-007-008-261400-
VERMONT
  
CITY           SKY/WX    TMP DP  RH WIND       PRES   REMARKS
ST JOHNSBURY     N/A     17   6  62 MISG      30.26R                  
MONTPELIER     FAIR      19   6  57 NW7       30.28R                  
BURLINGTON     FAIR      25   8  48 N8        30.33R                  
$$

MAZ007-012-024-CTZ003-RIZ002-NYZ038-NYZ072-261400-
SOUTHERN NEW ENGLAND AND NY
  
CITY           SKY/WX    TMP DP  RH WIND       PRES   REMARKS
BOSTON         FAIR      37   3  24 N15       30.25R                  
WORCESTER      FAIR      31   1  28 N13G22    30.20R                  
NANTUCKET      FAIR      39  17  41 NE20G29   30.18R                  
PROVIDENCE     FAIR      37   4  25 N16       30.23R                  
HARTFORD       FAIR      35   5  28 N14       30.25R                  
ALBANY         FAIR      32   8  36 N8        30.32R                  
NEW YORK CITY  FAIR      36   4  26 N14       30.24R                  
$$

ANZ081-ANZ082-ANZ150-NHZ014-MEZ023>029-261400-
COASTAL MARINE OBSERVATIONS
  
STATION/POSITION TIME  TEMP    WIND        PRES    WAVE
                       AIR SEA DIR/SP/G            HT/PER
                 (UTC) (F)     (DEG/KT/KT) (MB)    (FT/S)
MOUNT DESERT ROC 1300   29     320/ 19/ 21 1022.7R
CASHES LEDGE BUO 1250   36 39              1023.2R   3/ 4
$$

.............KEY..............
   WCI - WIND CHILL
   TC  - TEMPERATURE IN CELSIUS
   VSB - VISIBILITY IN MILES
   HX  - HEAT INDEX
   FAIR- INDICATES FEW OR NO CLOUDS BELOW 12,000 FT, WITH NO 
         SIGNIFICANT WEATHER AND/OR OBSTRUCTIONS TO VISIBILITY.